Location: Newark
(2.6153°S, 29.9989°E)
Time: 04:00:04
(UTC+00:00)

N. Korean satellite - Pass Details

Date: 26 August 2019
Orbit: 455 x 509 km, 97.2° (Epoch: 21 September)

Event Time Altitude Azimuth Distance (km) Brightness Sun altitude
Rises 16:32:07 0° 206° (SSW) 2,582 10.5 -7.9°
Reaches altitude 10° 16:35:47 10° 245° (WSW) 1,707 10.2 -8.8°
Maximum altitude 16:36:39 11° 258° (WSW) 1,665 10.5 -9.0°
Drops below altitude 10° 16:37:31 10° 272° (W) 1,709 10.9 -9.2°
Sets 16:41:13 0° 311° (NW) 2,596 11.4 -10.1°
